DW6497 Weather Reports


Display with metric or nautical units.
time (UTC)temp
F
wind
direction
speed
MPH
gust
MPH
rain 1hr
in
rain 24hr
in
rain mn
in
humidity
%
barometer
mb
20260901144508 86 194 1.0 7.0 0.00 0.00 0.00 66 1014.7
20260901143004 85 215 2.0 12.0 0.00 0.00 0.00 70 1014.8
20260901141615 82 212 0.0 0.0 0.00 0.00 0.00 77 1014.9
20260901140132 79 225 0.0 0.0 0.00 0.00 0.00 89 1014.9
20260901134555 76 225 0.0 0.0 0.00 0.00 0.00 93 1015.0
20260901133056 74 225 0.0 0.0 0.00 0.00 0.00 94 1015.0
20260901131555 72 225 0.0 0.0 0.00 0.00 0.00 95 1015.1
20260901130054 71 225 0.0 0.0 0.00 0.00 0.00 94 1015.0
20260901124556 70 225 0.0 0.0 0.00 0.00 0.00 94 1014.9
20260901123049 70 225 0.0 0.0 0.00 0.00 0.00 94 1014.7
20260901121553 69 225 0.0 0.0 0.00 0.00 0.00 94 1014.6
20260901120047 69 225 0.0 0.0 0.00 0.00 0.00 93 1014.6
20260901114548 69 225 0.0 0.0 0.00 0.00 0.00 93 1014.4
20260901113045 69 225 0.0 0.0 0.00 0.00 0.00 93 1014.3
20260901111544 69 225 0.0 0.0 0.00 0.00 0.00 92 1014.3
20260901110043 69 225 0.0 0.0 0.00 0.00 0.00 92 1014.2
20260901104544 70 225 0.0 0.0 0.00 0.00 0.00 92 1014.1
20260901103040 70 225 0.0 0.0 0.00 0.00 0.00 92 1014.0
20260901101556 70 225 0.0 0.0 0.00 0.00 0.00 91 1014.0
20260901100042 71 225 0.0 0.0 0.00 0.00 0.00 91 1013.8
20260901094541 71 225 0.0 0.0 0.00 0.00 0.00 91 1013.7
20260901093032 71 225 0.0 0.0 0.00 0.00 0.00 90 1013.7
20260901091546 72 225 0.0 0.0 0.00 0.00 0.00 90 1013.6
20260901090029 72 225 0.0 0.0 0.00 0.00 0.00 89 1013.6
20260901084535 72 225 0.0 0.0 0.00 0.00 0.00 88 1013.3
20260901083025 73 225 0.0 0.0 0.00 0.00 0.00 88 1013.1
20260901081521 73 225 0.0 0.0 0.00 0.00 0.00 87 1013.1
20260901080049 74 225 0.0 0.0 0.00 0.00 0.00 87 1013.1
20260901074518 74 225 0.0 0.0 0.00 0.00 0.00 87 1013.1
20260901073021 75 225 0.0 0.0 0.00 0.00 0.00 87 1013.0
20260901071514 75 225 0.0 0.0 0.00 0.00 0.00 86 1012.9
20260901070019 75 225 0.0 0.0 0.00 0.00 0.00 85 1012.8
20260901064513 76 225 0.0 0.0 0.00 0.00 0.00 84 1012.9
20260901063008 76 225 0.0 0.0 0.00 0.00 0.00 82 1013.0
20260901061506 77 225 0.0 0.0 0.00 0.00 0.00 81 1013.0
20260901060005 78 225 0.0 0.0 0.00 0.00 0.00 80 1013.0
20260901054502 78 225 0.0 0.0 0.00 0.00 0.00 80 1013.0
20260901053109 79 226 0.0 0.0 0.00 0.00 0.00 78 1012.8
20260901051559 79 226 0.0 0.0 0.00 0.00 0.00 77 1012.8
20260901050055 80 226 0.0 0.0 0.00 0.00 0.00 76 1012.7
20260901044611 80 178 0.0 0.0 0.00 0.00 0.00 75 1012.7
20260901043051 80 149 0.0 0.0 0.00 0.00 0.00 75 1012.8
20260901041549 80 126 0.0 0.0 0.00 0.00 0.00 74 1012.8
20260901040058 81 167 0.0 0.0 0.00 0.00 0.00 74 1012.8
20260901034547 81 140 0.0 0.0 0.00 0.00 0.00 73 1012.8
20260901033046 81 140 0.0 0.0 0.00 0.00 0.00 73 1012.8
20260901031545 81 137 0.0 0.0 0.00 0.00 0.00 74 1012.7
20260901030043 81 136 0.0 0.0 0.00 0.00 0.00 74 1012.6
20260901024548 81 134 0.0 0.0 0.00 0.00 0.00 74 1012.6
20260901023041 82 135 0.0 0.0 0.00 0.00 0.00 73 1012.5
20260901021543 83 135 0.0 0.0 0.00 0.00 0.00 70 1012.4
20260901020036 84 135 0.0 0.0 0.00 0.00 0.00 68 1012.3
20260901014527 85 135 0.0 0.0 0.00 0.00 0.00 67 1012.2
20260901013024 86 136 0.0 0.0 0.00 0.00 0.00 65 1012.0
20260901011526 87 136 0.0 0.0 0.00 0.00 0.00 62 1011.9
20260901010016 89 136 0.0 0.0 0.00 0.00 0.00 59 1011.7
20260901004512 91 128 0.0 0.0 0.00 0.00 0.00 56 1011.7
20260901003009 93 128 0.0 0.0 0.00 0.00 0.00 53 1011.6
20260901001503 94 214 0.0 0.0 0.00 0.00 0.00 51 1011.6
20260901000001 95 214 0.0 0.0 0.00 0.00 0.00 49 1011.5
20260831234559 96 215 0.0 3.0 0.00 0.00 0.00 48 1011.6
20260831233054 97 207 2.0 5.0 0.00 0.00 0.00 45 1011.5
20260831231603 98 202 0.0 5.0 0.00 0.00 0.00 41 1011.6
20260831230053 98 178 0.0 4.0 0.00 0.00 0.00 41 1011.5
20260831224619 99 219 0.0 8.0 0.00 0.00 0.00 40 1011.3
20260831223046 100 197 2.0 7.0 0.00 0.00 0.00 40 1011.3
20260831221552 100 240 0.0 4.0 0.00 0.00 0.00 39 1011.4
20260831220049 99 178 0.0 7.0 0.00 0.00 0.00 39 1011.5
20260831214546 100 225 1.0 9.0 0.00 0.00 0.00 41 1011.5
20260831213039 100 200 0.0 7.0 0.00 0.00 0.00 38 1011.5
20260831211541 100 242 1.0 10.0 0.00 0.00 0.00 40 1011.6
20260831210035 101 227 1.0 5.0 0.00 0.00 0.00 38 1011.6
20260831203031 100 213 1.0 9.0 0.00 0.00 0.00 41 1011.7
20260831201520 100 235 0.0 6.0 0.00 0.00 0.00 43 1012.0
20260831200016 100 267 1.0 8.0 0.00 0.00 0.00 43 1012.1
20260831194514 99 239 2.0 8.0 0.00 0.00 0.00 44 1012.3
20260831193010 99 226 1.0 7.0 0.00 0.00 0.00 45 1012.4
20260831191529 98 202 3.0 8.0 0.00 0.00 0.00 44 1012.5
20260831190007 98 230 1.0 6.0 0.00 0.00 0.00 44 1012.7
20260831184504 97 209 1.0 10.0 0.00 0.00 0.00 46 1012.9
20260831183002 97 238 4.0 9.0 0.00 0.00 0.00 45 1013.2
20260831181607 96 249 2.0 7.0 0.00 0.00 0.00 46 1013.3
20260831180056 95 196 0.0 5.0 0.00 0.00 0.00 48 1013.5
20260831174554 94 275 3.0 9.0 0.00 0.00 0.00 49 1013.8
20260831173051 93 188 1.0 10.0 0.00 0.00 0.00 51 1014.0
20260831171550 93 159 3.0 9.0 0.00 0.00 0.00 51 1014.1
20260831170047 92 213 3.0 12.0 0.00 0.00 0.00 50 1014.3
20260831164546 92 240 2.0 12.0 0.00 0.00 0.00 50 1014.4
20260831163044 92 207 1.0 7.0 0.00 0.00 0.00 50 1014.4
20260831161542 91 199 3.0 8.0 0.00 0.00 0.00 51 1014.5
20260831160042 90 218 1.0 9.0 0.00 0.00 0.00 53 1014.5
20260831154602 89 203 2.0 11.0 0.00 0.00 0.00 53 1014.6
20260831153033 88 200 0.0 6.0 0.00 0.00 0.00 55 1014.6
20260831151536 87 205 2.0 9.0 0.00 0.00 0.00 56 1014.5
20260831150028 86 223 1.0 7.0 0.00 0.00 0.00 59 1014.5